Location: Baia Mare
(47.6567°N, 23.5850°E)
Time: 17:50:27

ISS - Pass Details

Date: 13 March 2018
Orbit: 403 x 406 km, 51.6° (Epoch: 21 March)

Event Time Altitude Azimuth Distance (km) Brightness Sun altitude
Exits shadow 04:04:33 23° 53° (NE) 917 -1.4 -26.7°
Drops below altitude 10° 04:06:06 10° 69° (ENE) 1,466 0.0 -26.5°
Sets 04:08:16 0° 77° (ENE) 2,326 1.2 -26.2°
